COSMOS 2310

Satellite information

Favourite Embed

Satellite Type and Status

PAYLOADIN ORBIT

Key statistics

Satellite COSMOS 2310 at a glance.

Uptime

11171

Days in orbit

Revolutions

≈ 13.7

Per day

Orbit

LEO

Low Earth Orbit

Inclination

82.9

Latest

Satellite identification and parameters

Extended collection of information and parameters for COSMOS 2310.

Object identification

Identified? True

Debris? False

Object name: COSMOS 2310

International designator: 1995-012A

Object number (NORAD): 23526

Object ID (CCSDS): 23526

Country: COMMONWEALTH OF INDEPENDENT STATES (CIS)

Current information (Y/N): Y

RCS size: LARGE

Orbital parameters

Period: 104.933 minutes

Inclination: 82.9462 deg

SMA: 7369.451 km

Apoapsis: 1006.927 km

Periapsis: 975.704 km

RAAN: 326.0032 deg

Eccentricy: 0.00211842

Argument of periapsis: 239.4582 deg

Mean anomaly: 293.9634 deg

Mean motion: 13.72303263 rev/day

Mean motion (dot): 0.0000009 rev/day2

B* drag term: 0.000082135196 1/REarth

Two-line elements (TLE)

Creation date: Oct. 20, 2025, 2:10 a.m.

Reference frame: TEME

Reference center: EARTH

Epoch: Oct. 19, 2025, 8 p.m. UTC

TLE line 0: 0 COSMOS 2310

TLE line 1: 1 23526U 95012A 25292.83366203 .00000090 00000-0 82135-4 0 9998

TLE line 2: 2 23526 82.9462 326.0032 0021184 239.4582 293.9634 13.72303263530954

Live tracking on map

Real-time ground track for satellite COSMOS 2310.

In-orbit conjunctions

A list of the most updated potential collisions computed for object COSMOS 2310.

Target Orbit TCA Probability of collision Miss distance Type
FENGYUN 1C DEB SSO 2024-07-14 06:08:06 0.0004375006 437.0 (m) DEBRIS

Associated space launch

There is no information available about the launch of this satellite, yet. Check back as we update our databases every day.

Latest news about this satellite

There are no fresh news available about this satellite. Check back as we update our databases every day.


Newsletter sign-up

Weekly statistics, charts and insights to help you stay on top of the space industry.